Regional Weather Roundup
Issued by NWS Cleveland, OH

Home | Current Version | Previous Version | Graphics & Text | Print | Product List | Glossary On
Versions: 1 2 3 4 5 6 7 8 9 10 11 12 13 14 15 16 17 18 19 20 21 22 23 24 25 26 27 28 29 30 31 32 33 34 35 36 37 38 39 40 41 42 43 44 45 46 47 48 49 50
000
ASUS41 KCLE 212300
RWRCLE
OHIO REGIONAL WEATHER ROUNDUP
NATIONAL WEATHER SERVICE WILMINGTON, OH
700 PM EDT MON MAY 21 2018

NOTE: "FAIR" INDICATES FEW OR NO CLOUDS BELOW 12,000 FEET WITH NO
SIGNIFICANT WEATHER AND/OR OBSTRUCTIONS TO VISIBILITY.

OHZ001>008-015>018-024>027-034-035-043-044-220000-
   NORTHWEST OHIO

CITY           SKY/WX    TMP DP  RH WIND       PRES   REMARKS
DEFIANCE       FAIR      60  57  89 NE9       30.05F
FINDLAY        LGT RAIN  63  59  87 NE15      30.03F FOG
TOLEDO EXPRESS PTSUNNY   58  57  97 E10       30.07F
TOLEDO EXEC    CLOUDY    58  51  78 NE10G21   30.09F
LIMA           FAIR      66  64  93 N12       30.03S
$$

OHZ009>014-019>023-028>033-038-089-220000-
   NORTHEAST OHIO

CITY           SKY/WX    TMP DP  RH WIND       PRES   REMARKS
CLE-HOPKINS    CLOUDY    64  52  64 NE10      30.08F
CLE-LAKEFRONT  FAIR      57  51  80 NE14      30.06F
CUY CO. ARPT   CLOUDY    72  57  60 N9        30.09S
LORAIN-ELYRIA  CLOUDY    62  47  57 NE14      30.08F
ASHTABULA      FAIR      67  51  56 VRB5      30.09F
AKRON-CANTON   PTSUNNY   78  59  51 SE7       30.06F
WOOSTER        NOT AVBL
MANSFIELD      FAIR      76  63  64 E8        30.05F
YOUNGSTOWN     CLOUDY    75  59  57 E6        30.07F
$$

OHZ042-051>053-060>062-070>072-077>081-220000-
  SOUTHWEST OHIO

CITY           SKY/WX    TMP DP  RH WIND       PRES   REMARKS
CINC-COVINGTON CLOUDY    82  66  58 SW5       30.01S
CINC-LUNKEN    FAIR      83  68  60 S5        30.00R
HAMILTON       FAIR      83  67  58 SW7       30.01R
DAYTON         CLOUDY    80  65  59 SW6       30.02S
WRIGHT-PAT AFB NOT AVBL
DAYTON GENERAL FAIR      84  61  45 SW6       30.00S
WILMINGTON     FAIR      81  68  64 SW6       30.01S
$$

OHZ036-037-039>041-045>050-054>059-063>069-073>076-082>088-220000-
  CENTRAL AND SOUTHEAST OHIO

CITY           SKY/WX    TMP DP  RH WIND       PRES   REMARKS
COLUMBUS       CLOUDY    81  66  60 SE9       30.02R
OSU AIRPORT    FAIR      80  65  59 S10       30.02R
BOLTON FIELD   SUNNY     81  68  65 SE8       30.03S
RICKENBACK AFB FAIR      79  67  66 MISG      30.01F
NEWARK         FAIR      79  66  64 SE9       30.03S
MARION         CLOUDY    80  63  55 SE13      30.01F
LANCASTER      FAIR      78  67  68 SE9       30.03F
ZANESVILLE     FAIR      78  66  66 S9        30.05S
NEW PHILLY     FAIR      80  61  52 SE7       30.05F
$$




USA.gov is the U.S. government's official web portal to all federal, state and local government web resources and services.